Station 42058 - Central Caribbean - 210 NM SSE of Kingston, Jamaica Image indicating link to RSS feed of recent meteorological observations for station 42058


Conditions at 42058 as of
(7:30 am EDT)
1130 GMT on 04/19/2024:
     

Click on the graph icon in the table below to see a time series plot of the last five days of that observation.

5-day plot - Wind Direction Wind Direction (WDIR): E ( 80 deg true )
5-day plot - Wind Speed Wind Speed (WSPD): 13.6 kts
5-day plot - Wind Gust Wind Gust (GST): 15.5 kts
5-day plot - Atmospheric Pressure Atmospheric Pressure (PRES):29.88 in
5-day plot - Air Temperature Air Temperature (ATMP): 81.7 °F
5-day plot - Water Temperature Water Temperature (WTMP): 82.4 °F
5-day plot - Dew Point Dew Point (DEWP): 76.8 °F
5-day plot - Heat Index Heat Index (HEAT): 89.2 °F
5-day plot - Wind Speed at 10 Meters Wind Speed at 10 meters (WSPD10M): 13.6 kts
5-day plot - Wind Speed at 20 Meters Wind Speed at 20 meters (WSPD20M): 15.5 kts
5-day plot -  Wind Speed, Wind Gust and Atmospheric Pressure Combined plot of Wind Speed, Gust, and Air Pressure
Supplemental Measurements
Lowest 1-minute Pressure
Time (EDT)Pressure
7:30 am29.88 in
Highest 1-minute Wind Speed
Time (EDT)5-day plot - 1-Minute Wind Speed WSPD 5-day plot - 1-Minute Wind Direction WDIR
7:28 am 13.6 kts E ( 80 deg true )
Previous observations
TIME
(EDT)
5-day plot - Wind Direction
WDIR
 
5-day plot - Wind Speed
WSPD
kts
5-day plot - Wind Gust
GST
kts
5-day plot - Wave Height
WVHT
ft
5-day plot - Dominant Wave Period
DPD
sec
5-day plot - Average Wave Period
APD
sec
5-day plot - Mean Wave Direction
MWD
 
5-day plot - Atmospheric Pressure
PRES
in
5-day plot - Pressure Tendency
PTDY
in
5-day plot - Air Temperature
ATMP
°F
5-day plot - Water Temperature
WTMP
°F
5-day plot - Dew Point
DEWP
°F
5-day plot - Salinity
SAL
psu
5-day plot - Visibility
VIS
nmi
5-day plot - Tide (above MLLW)
TIDE
ft
2024-04-19 07:20 am E 13.6 15.5 3.6 74.8ENE29.88- 81.7 82.4 76.8---
2024-04-19 07:10 amENE 13.6 15.5 3.6-4.8ENE29.87- 81.7 82.6 76.8---
2024-04-19 07:00 amENE 13.6 15.5----29.87+0.02 81.7 82.6 76.8---
2024-04-19 06:50 amENE 13.6 15.5 3.6 74.8ENE29.87- 81.7 82.6 76.8---
2024-04-19 06:40 amENE 13.6 15.5----29.87- 81.5 82.6 76.6---
2024-04-19 06:30 amENE 13.6 15.5----29.86- 81.7 82.6 77.0---
2024-04-19 06:20 amENE 13.6 15.5 3.6 74.8 NE29.86- 81.5 82.6 76.5---
2024-04-19 06:10 amENE 13.6 17.5 3.6-4.8 NE29.86- 81.5 82.6 76.6---
2024-04-19 06:00 amENE 13.6 15.5----29.85+0.00 81.5 82.6 76.5---
2024-04-19 05:50 amENE 13.6 15.5 3.9 84.9ENE29.85- 81.7 82.6 76.6---
2024-04-19 05:40 amENE 13.6 15.5----29.85- 81.7 82.6 76.6---
2024-04-19 05:30 am E 13.6 15.5----29.85- 81.7 82.6 76.8---
2024-04-19 05:20 am E 11.7 13.6 4.3 75.0ENE29.85- 81.7 82.6 76.6---
2024-04-19 05:10 am E 13.6 15.5 4.3-5.0ENE29.85- 81.7 82.6 76.3---
2024-04-19 05:00 am E 13.6 15.5----29.85-0.03 81.7 82.6 76.5---
2024-04-19 04:50 am E 13.6 15.5 3.9 74.7ENE29.85- 81.7 82.6 76.3---
2024-04-19 04:40 am E 11.7 15.5----29.85- 81.7 82.6 76.8---
2024-04-19 04:30 am E 11.7 13.6----29.85- 81.7 82.6 76.6---
2024-04-19 04:20 am E 11.7 13.6 4.3 75.0ENE29.85- 81.7 82.6 76.8---
2024-04-19 04:10 am E 11.7 13.6 4.3-5.0ENE29.85- 81.9 82.6 76.8---
2024-04-19 04:00 am E 11.7 15.5----29.85-0.04 81.7 82.6 76.5---
2024-04-19 03:50 am E 11.7 15.5 3.9 74.9ENE29.85- 81.7 82.6 76.8---
2024-04-19 03:40 am E 11.7 13.6----29.85- 81.7 82.6 76.8---
2024-04-19 03:30 am E 11.7 15.5----29.85- 81.7 82.6 76.8---
2024-04-19 03:20 am E 11.7 15.5 3.6 74.6ENE29.85- 81.9 82.6 77.0---
2024-04-19 03:10 am E 13.6 15.5 3.6-4.6ENE29.85- 81.9 82.6 76.6---
2024-04-19 03:00 am E 13.6 15.5----29.86-0.02 81.9- 76.8---
2024-04-19 02:50 am E 13.6 15.5 4.3 74.9 NE29.86- 81.9 82.6 76.8---
2024-04-19 02:40 am E 13.6 15.5----29.87- 82.0 82.6 77.0---
2024-04-19 02:30 am E 13.6 15.5----29.87- 82.0 82.6 77.2---
2024-04-19 02:20 amENE 13.6 15.5 4.3 75.1ENE29.87- 82.0 82.6 77.2---
2024-04-19 02:10 amENE 13.6 15.5 4.3-5.1ENE29.87- 82.0 82.6 77.2---
2024-04-19 02:00 amENE 13.6 15.5----29.88-0.01 82.0 82.8 77.0---
2024-04-19 01:50 amENE 13.6 15.5 4.3 65.0ENE29.88- 82.0 82.8 76.8---
2024-04-19 01:40 amENE 13.6 15.5----29.88- 82.0 82.8 76.6---
2024-04-19 01:30 amENE 13.6 15.5----29.88- 82.0 82.8 77.0---
2024-04-19 01:20 amENE 13.6 15.5 3.9 74.8ENE29.88- 82.2 82.8 77.2---
2024-04-19 01:10 amENE 13.6 15.5 3.9-4.8ENE29.89- 82.0 82.8 76.8---
2024-04-19 01:00 amENE 13.6 15.5----29.89+0.01 82.2 82.8 77.2---
2024-04-19 12:50 amENE 13.6 15.5 4.6 75.0ENE29.89- 82.2 82.8 77.2---
2024-04-19 12:40 amENE 13.6 15.5 4.6-5.0ENE29.89- 82.2 82.8 77.0---
2024-04-19 12:30 amENE 13.6 17.5----29.89- 82.2 82.8 77.4---
2024-04-19 12:20 amENE 13.6 17.5 4.3 74.9ENE29.89- 82.4 82.8 77.2---
2024-04-19 12:10 amENE 15.5 17.5 4.3-4.9ENE29.88- 82.4 82.8 77.2---
2024-04-19 12:00 amENE 15.5 17.5----29.88+0.02 82.2 82.8 77.0---
2024-04-18 11:50 pmENE 13.6 15.5 4.3 74.9ENE29.89- 82.4 82.8 77.5---
2024-04-18 11:40 pmENE 13.6 15.5 4.3-4.9ENE29.89- 82.4 82.8 77.4---
2024-04-18 11:30 pmENE 13.6 17.5----29.89- 82.4 82.8 77.2---
2024-04-18 11:20 pmENE 13.6 15.5 4.3 74.9 E29.89- 82.4 82.9 77.4---
2024-04-18 11:10 pmENE 13.6 15.5 4.3-4.9 E29.89- 82.6- 77.4---
2024-04-18 11:00 pmENE 15.5 17.5----29.89+0.04 82.6 82.9 77.2---
2024-04-18 10:50 pmENE 13.6 17.5 4.6 75.0ENE29.89- 82.6 82.9 77.4---
2024-04-18 10:40 pmENE 13.6 17.5 4.6-5.0ENE29.89- 82.6 82.9 77.2---
2024-04-18 10:30 pmENE 13.6 17.5----29.89- 82.6 82.8 77.4---
2024-04-18 10:20 pmENE 13.6 17.5 3.9 74.8ENE29.88- 82.6 82.8 77.5---
2024-04-18 10:10 pmENE 13.6 17.5 3.9-4.8ENE29.88- 82.6 82.8 77.2---
2024-04-18 10:00 pmENE 13.6 17.5----29.88+0.04 82.6 82.8 77.4---
2024-04-18 09:50 pmENE 13.6 17.5 4.3 74.8 NE29.88- 82.6 82.8 77.4---
2024-04-18 09:40 pmENE 13.6 17.5 4.3-4.8 NE29.87- 82.6 82.8 77.2---
2024-04-18 09:30 pmENE 15.5 17.5----29.87- 82.6 82.8 77.2---
2024-04-18 09:20 pmENE 13.6 17.5 4.3 74.8ENE29.87- 82.6 82.8 77.5---
2024-04-18 09:10 pmENE 13.6 17.5 4.3-4.8ENE29.87- 82.6 82.8 77.2---
2024-04-18 09:00 pmENE 15.5 17.5----29.86+0.04 82.6 82.8 77.0---
2024-04-18 08:50 pmENE 15.5 17.5 4.6 75.1ENE29.86- 82.6 82.8 77.2---
2024-04-18 08:40 pmENE 13.6 17.5----29.86- 82.6 82.8 77.4---
2024-04-18 08:30 pmENE 15.5 17.5----29.85- 82.6 82.8 77.2---
2024-04-18 08:20 pmENE 13.6 17.5 4.3 74.8ENE29.85- 82.6 82.8 77.0---
2024-04-18 08:10 pmENE 13.6 17.5 4.3-4.8ENE29.85- 82.6 82.8 77.5---
2024-04-18 08:00 pmENE 13.6 17.5----29.85+0.04 82.6 82.8 77.5---
2024-04-18 07:50 pmENE 13.6 15.5 4.6 74.8NNE29.85- 82.6 82.8 77.4---
2024-04-18 07:40 pmENE 13.6 17.5----29.84- 82.6 82.8 77.2---
2024-04-18 07:10 pmENE 15.5 17.5 4.3-5.0 NE29.83- 82.6 82.8 77.2---
2024-04-18 07:00 pmENE 13.6 15.5----29.83+0.00 82.8 82.9 77.5---
2024-04-18 06:50 pmENE 15.5 17.5 4.3 74.7NNE29.83- 82.8 82.8 77.4---
2024-04-18 06:40 pmENE 13.6 17.5 4.3-4.7NNE29.83- 82.8 82.9 77.4---
2024-04-18 06:30 pmENE 13.6 17.5----29.83- 82.8 82.9 77.4---
2024-04-18 06:20 pmENE 15.5 17.5 4.3 74.8 NE29.83- 82.8 82.9 77.4---
2024-04-18 06:10 pmENE 15.5 17.5 4.3-4.8 NE29.83- 82.9 82.9 77.4---
2024-04-18 06:00 pmENE 15.5 19.4----29.82-0.03 82.8 82.9 76.8---
2024-04-18 05:50 pmENE 15.5 19.4 4.3 64.7ENE29.82- 82.8 82.9 77.2---
2024-04-18 05:40 pmENE 15.5 17.5----29.82- 82.8 82.9 77.2---
2024-04-18 05:30 pmENE 15.5 17.5----29.82- 82.8 82.9 77.4---
2024-04-18 05:20 pmENE 13.6 17.5 3.9 74.7ENE29.82- 82.8 82.9 77.2---
2024-04-18 05:10 pmENE 13.6 17.5 3.9-4.7ENE29.82- 82.8 83.1 77.2---
2024-04-18 05:00 pm E 13.6 15.5----29.81-0.05 82.8 82.9 77.4---
2024-04-18 04:50 pm E 13.6 15.5 3.9 74.7ENE29.81- 82.8 83.1 77.4---
2024-04-18 04:40 pm E 13.6 15.5----29.81- 82.8 82.9 77.4---
2024-04-18 04:30 pm E 13.6 15.5----29.82- 82.8 82.9 77.4---
2024-04-18 04:20 pm E 13.6 15.5 3.9 74.7ENE29.82- 82.8 82.9 77.2---
2024-04-18 04:10 pmENE 13.6 15.5 3.9-4.7ENE29.82- 82.8 82.9 77.2---
2024-04-18 04:00 pm E 13.6 15.5----29.83-0.06 82.9 83.1 77.4---
2024-04-18 03:50 pm E 13.6 15.5 3.6 74.5ENE29.83- 82.8 83.1 76.8---
2024-04-18 03:40 pmENE 13.6 15.5----29.83- 82.8 83.1 77.2---
2024-04-18 03:30 pm E 13.6 15.5----29.84- 82.8 83.1 77.0---
2024-04-18 03:20 pm E 13.6 15.5 3.6 64.6ENE29.84- 82.8 82.9 77.0---
2024-04-18 03:10 pm E 13.6 15.5 3.6-4.6ENE29.84- 82.8 82.9 77.2---
2024-04-18 03:00 pm E 13.6 15.5----29.85-0.05 82.9 83.1 77.5---
2024-04-18 02:50 pm E 13.6 15.5 3.9 64.6ENE29.85- 82.8 82.9 77.0---
2024-04-18 02:40 pm E 13.6 15.5 3.9-4.6ENE29.85- 82.8 82.9 77.2---
2024-04-18 02:30 pm E 13.6 15.5----29.85- 82.8 82.9 77.0---
2024-04-18 02:20 pm E 13.6 15.5 3.9 74.5ENE29.86- 82.8 82.9 77.0---
2024-04-18 02:10 pm E 13.6 15.5 3.9-4.5ENE29.86- 82.6 82.9 77.2---
2024-04-18 02:00 pm E 13.6 15.5----29.86-0.04 82.8 82.9 77.4---
2024-04-18 01:50 pm E 13.6 15.5 3.6 64.5ENE29.87- 82.8 82.9 77.2---
2024-04-18 01:40 pm E 13.6 17.5----29.87- 82.6 82.8 77.0---
2024-04-18 01:30 pm E 13.6 15.5----29.87- 82.8 82.8 77.5---
2024-04-18 01:20 pm E 13.6 15.5 3.6 74.5ENE29.88- 82.6 82.8 77.0---
2024-04-18 01:10 pm E 13.6 15.5 3.6-4.5ENE29.88- 82.6 82.8 77.2---
2024-04-18 01:00 pm E 13.6 15.5----29.88-0.02 82.8 82.8 77.4---
2024-04-18 12:50 pm E 13.6 15.5 3.9 74.3ENE29.88- 82.8 82.6 77.0---
2024-04-18 12:40 pm E 13.6 17.5 3.9-4.3ENE29.89- 82.8 82.6 77.0---
2024-04-18 12:30 pm E 13.6 17.5----29.89- 82.6 82.6 77.0---
2024-04-18 12:20 pm E 13.6 15.5 3.9 74.7ENE29.90- 82.8 82.8 77.4---
2024-04-18 12:10 pm E 13.6 17.5 3.9-4.7ENE29.90- 82.6 82.8 77.0---
2024-04-18 12:00 pm E 13.6 15.5----29.90+0.00 82.6 82.6 77.2---
2024-04-18 11:50 am E 13.6 15.5 3.6 74.5ENE29.90- 82.8 82.4 77.2---
2024-04-18 11:40 am E 13.6 15.5 3.6-4.5ENE29.90- 82.6 82.6 76.8---
2024-04-18 11:30 am E 13.6 17.5----29.91- 82.6 82.6 76.8---
2024-04-18 11:20 am E 13.6 17.5 3.6 74.5 E29.91- 82.6 82.4 76.6---
2024-04-18 11:10 am E 13.6 15.5 3.6-4.5 E29.91- 82.6 82.4 76.8---
2024-04-18 11:00 am E 13.6 15.5----29.91+0.02 82.6 82.4 76.6---
2024-04-18 10:50 am E 13.6 15.5 3.9 74.6ENE29.91- 82.4 82.4 76.6---
2024-04-18 10:40 am E 13.6 15.5----29.91- 82.6 82.4 77.0---
2024-04-18 10:30 am E 13.6 15.5----29.91- 82.4 82.4 76.8---
2024-04-18 10:20 am E 13.6 15.5 3.9 74.7 E29.91- 82.6 82.4 77.0---
2024-04-18 10:10 am E 13.6 15.5 3.9-4.7 E29.91- 82.4 82.4 76.6---
2024-04-18 10:00 am E 11.7 15.5----29.91+0.05 82.4 82.4 76.8---
2024-04-18 09:50 am E 13.6 15.5 3.6 74.5ENE29.91- 82.4 82.4 76.5---
2024-04-18 09:40 am E 13.6 15.5----29.90- 82.4 82.4 76.5---
2024-04-18 09:30 am E 13.6 15.5----29.91- 82.4 82.4 76.5---
2024-04-18 09:20 am E 13.6 15.5 3.9 74.7ENE29.90- 82.2 82.4 76.3---
2024-04-18 09:10 am E 13.6 15.5 3.9-4.7ENE29.90- 82.4 82.4 76.6---
2024-04-18 09:00 am E 13.6 15.5----29.90+0.06 82.2 82.4 76.3---
2024-04-18 08:50 am E 13.6 15.5 3.9 74.6ENE29.90- 82.2 82.4 76.1---
2024-04-18 08:40 am E 13.6 15.5 3.9-4.6ENE29.90- 82.2 82.4 76.3---
2024-04-18 08:30 am E 13.6 15.5----29.90- 82.2 82.4 76.1---
2024-04-18 08:20 am E 13.6 15.5 4.3 74.9 E29.89- 82.2 82.4 76.3---
2024-04-18 08:10 am E 13.6 15.5 4.3-4.9 E29.89- 82.2 82.4 76.1---
2024-04-18 08:00 am E 13.6 17.5----29.89+0.06 82.2 82.4 75.7---
2024-04-18 07:50 am E 13.6 15.5 3.9 74.8ENE29.88- 82.2 82.4 75.9---
2024-04-18 07:40 am E 13.6 15.5----29.88- 82.2 82.4 75.9---
2024-04-18 07:30 am E 13.6 17.5----29.87- 82.0 82.4 75.6---
2024-04-18 07:20 am E 13.6 15.5 3.9 74.7ENE29.87- 82.0 82.4 75.7---
2024-04-18 07:10 am E 13.6 15.5 3.9-4.7ENE29.86- 82.0 82.4 75.6---
2024-04-18 07:00 am E 13.6 15.5----29.86+0.04 82.0 82.4 75.7---
2024-04-18 06:50 am E 11.7 15.5 3.9 74.7 NE29.86- 81.9 82.4 75.7---

Detailed Wave Summary
for 42058 as of (7:10 am EDT)
1110 GMT on 04/19/2024:

These wave data are displayed in rounded times.

     

Click on the graph icon in the table below to see a time series plot of the last five days of that observation.

5-day plot - Significant Wave Height Significant Wave Height (WVHT): 3.6 ft
5-day plot - Swell Height Swell Height (SwH): 2.0 ft
5-day plot - Swell Period Swell Period (SwP): 7.1 sec
5-day plot - Swell Direction Swell Direction (SwD):ENE
5-day plot - Wind Wave Height Wind Wave Height (WWH): 3.0 ft
5-day plot - Wind Wave Period Wind Wave Period (WWP): 5.3 sec
5-day plot - Wind Wave Direction Wind Wave Direction (WWD): NE
5-day plot - Wave Steepness Wave Steepness (STEEPNESS): AVERAGE
5-day plot - Average Wave Period Average Wave Period (APD): 4.8 sec
Previous observations
TIME
(EDT)
5-day plot - Wave Height
WVHT
ft
5-day plot - Swell Height
SwH
ft
5-day plot - Swell Period
SwP
sec
5-day plot - Swell Direction
SwD
 
5-day plot - Wind Wave Height
WWH
ft
5-day plot - Wind Wave Period
WWP
sec
5-day plot - Wind Wave Direction
WWD
 
5-day plot - Wave Steepness
STEEPNESS
 
5-day plot - Average Wave Period
APD
sec
2024-04-19 06:40 am 3.6 2.0 7.1ENE 3.3 5.6 ENE AVERAGE 4.8
2024-04-19 06:10 am 3.6 2.3 7.1 NE 3.0 4.5 ENE AVERAGE 4.8
2024-04-19 05:40 am 3.9 2.6 7.7ENE 2.6 5.0 ENE AVERAGE 4.9
2024-04-19 05:10 am 4.3 3.0 7.1ENE 3.0 5.3 ENE AVERAGE 5.0
2024-04-19 04:40 am 3.9 2.6 6.7ENE 2.6 4.8 ENE STEEP 4.7
2024-04-19 04:10 am 4.3 3.3 6.7ENE 2.6 5.0 ENE STEEP 5.0
2024-04-19 03:40 am 3.9 3.0 6.7ENE 2.6 5.3 ENE STEEP 4.9
2024-04-19 03:10 am 3.6 2.3 7.1ENE 3.0 5.6 E AVERAGE 4.6
2024-04-19 02:40 am 4.3 2.6 7.1 NE 3.0 6.2 ENE AVERAGE 4.9
2024-04-19 02:10 am 4.3 3.0 7.1ENE 3.3 5.3 ENE STEEP 5.1
2024-04-19 01:40 am 4.3 2.6 7.7ENE 3.6 6.2 ENE STEEP 5.0
2024-04-19 01:10 am 3.9 2.6 7.1ENE 3.0 5.0 E AVERAGE 4.8
2024-04-19 12:40 am 4.6 3.3 7.1ENE 3.3 5.9 NE STEEP 5.0
2024-04-19 12:10 am 4.3 3.0 6.7ENE 3.0 5.9 NE STEEP 4.9
2024-04-18 11:40 pm 4.3 2.3 9.1 NE 3.6 6.7 ENE STEEP 4.9
2024-04-18 11:10 pm 4.3 3.0 6.7 E 3.3 4.5 NE STEEP 4.9
2024-04-18 10:40 pm 4.6 2.6 7.1ENE 3.6 5.9 ENE STEEP 5.0
2024-04-18 10:10 pm 3.9 2.6 7.1ENE 3.0 5.9 ENE AVERAGE 4.8
2024-04-18 09:40 pm 4.3 3.0 6.7 NE 3.3 5.0 ENE STEEP 4.8
2024-04-18 09:10 pm 4.3 3.0 7.1ENE 3.3 6.2 ENE STEEP 4.8
2024-04-18 08:40 pm 4.6 3.3 6.7ENE 3.3 5.9 ENE STEEP 5.1
2024-04-18 08:10 pm 4.3 3.0 6.7ENE 3.3 5.3 NE STEEP 4.8
2024-04-18 07:40 pm 4.6 3.0 7.1NNE 3.3 5.0 ENE STEEP 4.8
2024-04-18 07:10 pm 4.3 3.3 6.7 NE 3.0 5.3 ENE STEEP 5.0
2024-04-18 06:40 pm 4.3 2.6 6.7NNE 3.3 5.3 ENE STEEP 4.7
2024-04-18 06:10 pm 4.3 2.6 7.1 NE 3.3 6.2 ENE AVERAGE 4.8
2024-04-18 05:40 pm 4.3 2.6 10.0ENE 3.3 6.2 ENE STEEP 4.7
2024-04-18 05:10 pm 3.9 2.0 7.1ENE 3.3 6.2 ENE AVERAGE 4.7
2024-04-18 04:40 pm 3.9 2.0 10.0 E 3.3 6.7 ENE STEEP 4.7
2024-04-18 04:10 pm 3.9 2.3 6.7ENE 3.3 5.9 ENE STEEP 4.7
2024-04-18 03:40 pm 3.6 0.0-- 3.6 6.7 ENE STEEP 4.5
2024-04-18 03:10 pm 3.6 2.0 7.1ENE 3.0 6.2 ENE STEEP 4.6
2024-04-18 02:40 pm 3.9 2.3 7.7ENE 3.3 6.2 ENE STEEP 4.6
2024-04-18 02:10 pm 3.9 2.3 7.1ENE 3.3 6.2 ENE AVERAGE 4.5
2024-04-18 01:40 pm 3.6 2.0 7.1 E 3.0 6.2 ENE STEEP 4.5
2024-04-18 01:10 pm 3.6 2.0 6.7ENE 3.3 5.3 ENE STEEP 4.5
2024-04-18 12:40 pm 3.9 2.3 6.7ENE 3.0 5.0 ENE STEEP 4.3
2024-04-18 12:10 pm 3.9 2.3 6.7ENE 3.0 5.3 NE STEEP 4.7
2024-04-18 11:40 am 3.6 1.6 10.8ESE 3.3 6.7 ENE STEEP 4.5
2024-04-18 11:10 am 3.6 1.6 11.4 E 3.3 6.7 E STEEP 4.5
2024-04-18 10:40 am 3.9 2.3 7.1ENE 3.0 5.9 E AVERAGE 4.6
2024-04-18 10:10 am 3.9 2.0 7.1 E 3.3 5.9 NE AVERAGE 4.7
2024-04-18 09:40 am 3.6 2.0 6.7ENE 3.0 5.0 NE STEEP 4.5
2024-04-18 09:10 am 3.9 2.3 7.1ENE 3.0 5.3 NE AVERAGE 4.7
2024-04-18 08:40 am 3.9 2.0 7.1ENE 3.6 4.5 NE AVERAGE 4.6
2024-04-18 08:10 am 4.3 2.6 7.1 E 3.3 5.9 E AVERAGE 4.9
2024-04-18 07:40 am 3.9 2.3 7.1ENE 3.3 6.2 ENE AVERAGE 4.8
2024-04-18 07:10 am 3.9 2.3 7.1ENE 3.3 5.6 NE AVERAGE 4.7

Plot of wave energy versus frequency (and period)